Home   Weather   Aalen   Past weeks

Flag for Germany Past Weather in Aalen, Baden-Württemberg, Germany — Yesterday and Last 2 Weeks

Now
41 °F

Passing clouds.


Feels Like: 36 °F
Forecast: 27 / 40 °F
Wind: 7 mph from Southwest

Location: Niederstetten

Current Time: Dec 10, 2016 at 7:40:20 pm

Latest Report: Dec 10, 2016 at 6:20 pm


Visibility: N/A

Pressure: 30.24 "Hg

Humidity: 61%

Dew Point: 28 °F

Location of AalenLocation

Past Weather in Aalen — Graph

°F

Aalen Temperature Yesterday

Maximum temperature yesterday: 45 °F (at 7:20 pm)
Minimum temperature yesterday: 37 °F (at 3:20 am)
Average temperature yesterday: 40 °F

High & Low Weather Summary for the Past Weeks

 TemperatureHumidityPressure
High46 °F (Dec 10, 12:20 am)100% (Nov 26, 10:20 am)30.54 "Hg (Nov 26, 10:20 am)
Low19 °F (Dec 4, 6:20 am)53% (Dec 8, 1:20 pm)30.01 "Hg (Nov 26, 2:20 pm)
Average32 °F84%30.30 "Hg
* Reported Nov 25 6:20 pm — Dec 10 6:20 pm, Aalen, Weather by CustomWeather, © 2016

Note: Actual official high and low records may vary slightly from our data, if they occured in-between our weather recording intervals... More about our weather records

Advertising

Aalen Weather History for the Previous 24 Hours

Scroll right to see more
 ConditionsComfort  
Time TempWeatherWind HumidityBarometerVisibility
6:20 pm
Sat, Dec 10
41 °FPassing clouds.7 mph61%30.24 "HgN/A
5:20 pm41 °FPassing clouds.8 mph66%30.24 "HgN/A
4:20 pm43 °FPassing clouds.12 mph66%30.24 "HgN/A
3:20 pm45 °FPassing clouds.13 mph57%30.27 "HgN/A
2:20 pm45 °FPassing clouds.16 mph53%30.27 "HgN/A
1:20 pm45 °FPassing clouds.15 mph57%30.27 "HgN/A
12:20 pm45 °FScattered clouds.10 mph53%30.30 "HgN/A
11:20 am45 °FScattered clouds.15 mph57%30.30 "HgN/A
10:20 am43 °FPartly sunny.13 mph61%30.30 "HgN/A
9:20 am41 °FPartly sunny.14 mph70%30.30 "HgN/A
8:20 am41 °FPartly sunny.9 mph66%30.30 "HgN/A
7:20 am41 °FPassing clouds.9 mph70%30.30 "HgN/A
6:20 am39 °FPassing clouds.6 mph75%30.30 "HgN/A
5:20 am39 °FPassing clouds.7 mph75%30.30 "HgN/A
4:20 am41 °FPassing clouds.5 mph70%30.33 "HgN/A
3:20 am45 °FPassing clouds.6 mph66%30.36 "HgN/A
2:20 am45 °FPassing clouds.6 mph71%30.36 "HgN/A
1:20 am45 °FPassing clouds.5 mph71%30.36 "HgN/A
12:20 am46 °FPassing clouds.7 mph66%30.39 "HgN/A
11:20 pm
Fri, Dec 9
45 °FPassing clouds.7 mph71%30.39 "HgN/A
10:20 pm41 °FPassing clouds.10 mph76%30.39 "HgN/A
9:20 pm41 °FPassing clouds.9 mph76%30.42 "HgN/A
8:20 pm43 °FPassing clouds.7 mph71%30.42 "HgN/A
7:20 pm45 °FPartly cloudy.9 mph71%30.42 "HgN/A
Weather by CustomWeather, © 2016

See weather overviewHow to use our weather pages